Location: Croydon
(51.3762°N, 0.0982°W)
Time: 21:00:58
(UTC+00:00)

Altair - Pass Details

Date: 14 November 2019
Orbit: 1502 x 1682 km, 47.2° (Epoch: 05 December)

Event Time Altitude Azimuth Distance (km) Brightness Sun altitude
Rises 04:01:36 0° 216° (SW) 4,629 - -30.1°
Reaches altitude 10° 04:04:51 10° 209° (SSW) 3,646 - -29.6°
Exits shadow 04:07:37 21° 198° (SSW) 2,900 8.7 -29.2°
Maximum altitude 04:13:02 38° 145° (SE) 2,139 8.4 -28.3°
Drops below altitude 10° 04:21:20 10° 82° (E) 3,704 10.5 -27.0°
Sets 04:24:39 0° 75° (ENE) 4,709 11.3 -26.5°
